Regional Weather Roundup
Issued by NWS

Home | Current Version | Previous Version | Graphics & Text | Print | Product List | Glossary On
Versions: 1 2 3 4 5 6 7 8 9 10 11 12 13 14 15 16 17 18 19 20 21 22 23 24 25 26 27 28 29 30 31 32 33 34 35 36 37 38 39 40 41 42 43 44 45 46 47 48 49 50
000
ASUS43 KLMK 252202
RWRKY
KENTUCKY REGIONAL WEATHER ROUNDUP
NATIONAL WEATHER SERVICE LOUISVILLE KY
600 PM EDT SAT MAR 25 2017

NOTE "FAIR" INDICATES FEW OR NO CLOUDS BELOW 12,000 FEET
WITH NO SIGNIFICANT WEATHER AND/OR OBSTRUCTIONS TO VISIBILITY.

KYZ001>023-026-027-061>063-070>075-252300-
WESTERN AND SOUTH CENTRAL KENTUCKY

CITY           SKY/WX    TMP DP  RH WIND       PRES   REMARKS
PADUCAH        PTSUNNY   66  56  70 S14G20    29.87F
HENDERSON      CLOUDY    66  52  59 S18G25    29.91F
OWENSBORO      CLOUDY    65  58  78 S8        29.94F
HOPKINSVILLE   PTSUNNY   68  55  61 S8        29.93F
BOWLING GREEN  LGT RAIN  66  58  75 SW10G26   29.99R
GLASGOW        NOT AVBL
$$

KYZ024-025-028>034-038-045-046-053-252300-
NORTH CENTRAL KENTUCKY

CITY           SKY/WX    TMP DP  RH WIND       PRES   REMARKS
LOUISVILLE/SDF CLOUDY    76  48  37 S18       29.97F
LOUISVILLE/LOU CLOUDY    76  50  40 S12G22    29.98F
FORT KNOX      PTSUNNY   74  51  44 S17G25    29.96F
$$

KYZ035>037-039>044-047>052-055>060-089>105-252300-
NORTHEAST KENTUCKY

CITY           SKY/WX    TMP DP  RH WIND       PRES   REMARKS
LEXINGTON      MOSUNNY   74  47  38 S16G22    30.03F
COVINGTON      CLOUDY    74  51  44 S17       30.00F
FRANKFORT      MOSUNNY   77  47  34 S13       30.01S
$$

KYZ054-064>069-076>088-106>120-252300-
SOUTHEAST KENTUCKY

CITY           SKY/WX    TMP DP  RH WIND       PRES   REMARKS
JACKSON        MOSUNNY   76  47  35 VRB6      30.07F
LONDON         CLOUDY    73  45  36 S10G18    30.07F
SOMERSET       NOT AVBL
MIDDLESBORO    MOSUNNY   75  47  36 SW5       30.08F
MONTICELLO     CLOUDY    73  51  46 SE10G17   30.05F
$$





USA.gov is the U.S. government's official web portal to all federal, state and local government web resources and services.